When you browse on this site, cookies collect data to enhance your experience and personalize the content and advertising you see.
Visit our Privacy Policy to learn more. By continuing to use the site, you agree to this use of cookies and data.
  • In Czech Republic
  • List of Countries
  • For 7 days
  • Water Temperature
  • Weather Map
  • Weather Widgets
  • user-avatar
    Login

    Hourly Weather Mansa Konko

    Today, 16 September, Monday

    Time Temperature Precipitation Wind Pressure Humidity
    00:00 +27°C° 0.7 mm 2 mps 759 mmHg 94%
    01:00 +27°C° 0.7 mm 2 mps 758 mmHg 95%
    02:00 +26°C° 0.7 mm 2 mps 758 mmHg 96%
    03:00 +26°C° 0 mm 2 mps 758 mmHg 96%
    04:00 +26°C° 0 mm 2 mps 758 mmHg 96%
    05:00 +26°C° 0 mm 2 mps 758 mmHg 96%
    06:00 +27°C° 0 mm 3 mps 758 mmHg 94%
    07:00 +28°C° 0 mm 3 mps 758 mmHg 92%
    08:00 +29°C° 0 mm 3 mps 759 mmHg 90%
    09:00 +30°C° 0 mm 2 mps 759 mmHg 83%
    10:00 +32°C° 0 mm 2 mps 759 mmHg 76%
    11:00 +33°C° 0 mm 1 mps 759 mmHg 69%
    12:00 +34°C° 0 mm 1 mps 758 mmHg 67%
    13:00 +34°C° 0 mm 1 mps 757 mmHg 65%
    14:00 +35°C° 0 mm 1 mps 756 mmHg 63%
    15:00 +34°C° 0.1 mm 1 mps 756 mmHg 67%
    16:00 +35°C° 0.1 mm 2 mps 756 mmHg 71%
    17:00 +34°C° 0.1 mm 2 mps 756 mmHg 75%
    18:00 +32°C° 1.6 mm 2 mps 757 mmHg 81%
    19:00 +30°C° 1.6 mm 3 mps 757 mmHg 87%
    20:00 +28°C° 1.6 mm 3 mps 757 mmHg 93%
    21:00 +28°C° 0.7 mm 3 mps 758 mmHg 94%
    22:00 +28°C° 0.7 mm 3 mps 758 mmHg 94%
    23:00 +27°C° 0.7 mm 2 mps 759 mmHg 95%

    Tomorrow, 17 September, Tuesday

    Time Temperature Precipitation Wind Pressure Humidity
    00:00 +27°C° 0.9 mm 2 mps 758 mmHg 95%
    01:00 +27°C° 0.9 mm 2 mps 757 mmHg 94%
    02:00 +27°C° 0.9 mm 2 mps 756 mmHg 94%
    03:00 +27°C° 0 mm 2 mps 756 mmHg 94%
    04:00 +27°C° 0 mm 2 mps 756 mmHg 95%
    05:00 +27°C° 0 mm 2 mps 756 mmHg 96%
    06:00 +27°C° 0 mm 2 mps 756 mmHg 93%
    07:00 +28°C° 0 mm 2 mps 757 mmHg 91%
    08:00 +29°C° 0 mm 2 mps 757 mmHg 89%
    09:00 +30°C° 0 mm 2 mps 757 mmHg 84%
    10:00 +31°C° 0 mm 2 mps 757 mmHg 79%
    11:00 +34°C° 0 mm 3 mps 757 mmHg 74%
    12:00 +34°C° 0 mm 2 mps 756 mmHg 70%
    13:00 +35°C° 0 mm 2 mps 756 mmHg 66%
    14:00 +36°C° 0 mm 2 mps 755 mmHg 62%
    15:00 +35°C° 0.2 mm 2 mps 755 mmHg 68%
    16:00 +34°C° 0.2 mm 3 mps 755 mmHg 74%
    17:00 +33°C° 0.2 mm 3 mps 755 mmHg 80%
    18:00 +31°C° 0.2 mm 3 mps 755 mmHg 84%
    19:00 +30°C° 0.2 mm 3 mps 756 mmHg 88%
    20:00 +28°C° 0.2 mm 3 mps 756 mmHg 91%
    21:00 +28°C° 0.1 mm 3 mps 757 mmHg 92%
    22:00 +28°C° 0.1 mm 3 mps 757 mmHg 93%
    23:00 +28°C° 0.1 mm 3 mps 757 mmHg 94%

    Day after tomorrow, 18 September, Wednesday

    Time Temperature Precipitation Wind Pressure Humidity
    00:00 +27°C° 4.2 mm 3 mps 757 mmHg 95%
    01:00 +27°C° 4.2 mm 4 mps 757 mmHg 96%
    02:00 +27°C° 4.2 mm 4 mps 757 mmHg 96%
    03:00 +26°C° 7.8 mm 3 mps 757 mmHg 97%
    04:00 +25°C° 7.8 mm 2 mps 757 mmHg 97%
    05:00 +25°C° 7.8 mm 2 mps 758 mmHg 97%
    06:00 +25°C° 0.7 mm 2 mps 758 mmHg 96%
    07:00 +25°C° 0.7 mm 2 mps 758 mmHg 95%
    08:00 +24°C° 0.7 mm 3 mps 758 mmHg 95%
    09:00 +25°C° 0.2 mm 3 mps 758 mmHg 93%
    10:00 +25°C° 0.2 mm 2 mps 757 mmHg 92%
    11:00 +26°C° 0.2 mm 2 mps 757 mmHg 91%
    12:00 +26°C° 0 mm 2 mps 757 mmHg 91%
    13:00 +27°C° 0 mm 2 mps 757 mmHg 91%
    14:00 +27°C° 0 mm 2 mps 757 mmHg 90%
    15:00 +27°C° 0.1 mm 2 mps 757 mmHg 92%
    16:00 +26°C° 0.1 mm 1 mps 757 mmHg 93%
    17:00 +26°C° 0.1 mm 1 mps 757 mmHg 94%
    18:00 +26°C° 0 mm 1 mps 758 mmHg 94%
    19:00 +26°C° 0 mm 1 mps 758 mmHg 94%
    20:00 +26°C° 0 mm 1 mps 759 mmHg 95%
    21:00 +25°C° 0 mm 1 mps 759 mmHg 95%
    22:00 +25°C° 0 mm 2 mps 759 mmHg 96%
    23:00 +25°C° 0 mm 2 mps 759 mmHg 97%

    19 September, Thursday

    Time Temperature Precipitation Wind Pressure Humidity
    00:00 +25°C° 0 mm 2 mps 759 mmHg 96%
    01:00 +25°C° 0 mm 2 mps 759 mmHg 96%
    02:00 +25°C° 0 mm 2 mps 758 mmHg 96%
    03:00 +25°C° 0 mm 2 mps 758 mmHg 96%
    04:00 +25°C° 0 mm 2 mps 758 mmHg 96%
    05:00 +25°C° 0 mm 1 mps 758 mmHg 96%
    06:00 +25°C° 0 mm 2 mps 758 mmHg 94%
    07:00 +26°C° 0 mm 2 mps 759 mmHg 92%
    08:00 +27°C° 0 mm 2 mps 759 mmHg 90%
    09:00 +28°C° 0 mm 2 mps 759 mmHg 84%
    10:00 +30°C° 0 mm 2 mps 759 mmHg 79%
    11:00 +31°C° 0 mm 2 mps 759 mmHg 74%
    12:00 +32°C° 0 mm 2 mps 759 mmHg 71%
    13:00 +32°C° 0 mm 2 mps 758 mmHg 68%
    14:00 +34°C° 0 mm 2 mps 758 mmHg 65%
    15:00 +32°C° 0 mm 2 mps 758 mmHg 69%
    16:00 +32°C° 0 mm 2 mps 758 mmHg 73%
    17:00 +31°C° 0 mm 2 mps 758 mmHg 78%
    18:00 +30°C° 0.1 mm 2 mps 758 mmHg 80%
    19:00 +28°C° 0.1 mm 2 mps 758 mmHg 81%
    20:00 +27°C° 0.1 mm 2 mps 759 mmHg 83%
    21:00 +27°C° 0 mm 2 mps 759 mmHg 84%
    22:00 +27°C° 0 mm 2 mps 759 mmHg 86%
    23:00 +26°C° 0 mm 2 mps 759 mmHg 87%

    20 September, Friday

    Time Temperature Precipitation Wind Pressure Humidity
    00:00 +26°C° 0 mm 2 mps 759 mmHg 89%
    01:00 +26°C° 0 mm 2 mps 758 mmHg 91%
    02:00 +26°C° 0 mm 2 mps 758 mmHg 93%
    03:00 +26°C° 0 mm 2 mps 758 mmHg 94%
    04:00 +26°C° 0 mm 1 mps 758 mmHg 95%
    05:00 +25°C° 0 mm 1 mps 758 mmHg 96%
    06:00 +27°C° 0 mm 2 mps 758 mmHg 93%
    07:00 +28°C° 0 mm 2 mps 758 mmHg 90%
    08:00 +29°C° 0 mm 3 mps 759 mmHg 87%
    09:00 +30°C° 0 mm 3 mps 759 mmHg 81%
    10:00 +31°C° 0 mm 3 mps 758 mmHg 75%
    11:00 +34°C° 0 mm 3 mps 758 mmHg 70%
    12:00 +34°C° 0 mm 3 mps 758 mmHg 67%
    13:00 +35°C° 0 mm 2 mps 757 mmHg 64%
    14:00 +36°C° 0 mm 2 mps 756 mmHg 61%
    15:00 +35°C° 0 mm 2 mps 756 mmHg 64%
    16:00 +35°C° 0 mm 2 mps 756 mmHg 67%
    17:00 +34°C° 0 mm 2 mps 755 mmHg 70%
    18:00 +33°C° 0 mm 3 mps 756 mmHg 75%
    19:00 +30°C° 0 mm 3 mps 756 mmHg 79%
    20:00 +29°C° 0 mm 4 mps 757 mmHg 84%
    21:00 +28°C° 0.8 mm 3 mps 757 mmHg 86%
    22:00 +28°C° 0.8 mm 3 mps 758 mmHg 87%
    23:00 +28°C° 0.8 mm 2 mps 758 mmHg 89%

    21 September, Saturday

    Time Temperature Precipitation Wind Pressure Humidity
    00:00 +27°C° 0.8 mm 2 mps 758 mmHg 90%
    01:00 +27°C° 0.8 mm 1 mps 757 mmHg 90%
    02:00 +27°C° 0.8 mm 1 mps 757 mmHg 91%
    03:00 +26°C° 0 mm 2 mps 757 mmHg 92%
    04:00 +26°C° 0 mm 2 mps 757 mmHg 92%
    05:00 +26°C° 0 mm 3 mps 757 mmHg 93%
    06:00 +26°C° 0 mm 3 mps 757 mmHg 92%
    07:00 +26°C° 0 mm 2 mps 757 mmHg 90%
    08:00 +27°C° 0 mm 2 mps 758 mmHg 89%
    09:00 +29°C° 0 mm 2 mps 758 mmHg 83%
    10:00 +30°C° 0 mm 2 mps 758 mmHg 77%
    11:00 +32°C° 0 mm 2 mps 758 mmHg 71%
    12:00 +33°C° 0 mm 1 mps 757 mmHg 68%
    13:00 +34°C° 0 mm 1 mps 756 mmHg 64%
    14:00 +34°C° 0 mm 1 mps 756 mmHg 61%
    15:00 +34°C° 0 mm 1 mps 756 mmHg 65%
    16:00 +34°C° 0 mm 1 mps 755 mmHg 68%
    17:00 +31°C° 0 mm 0 mps 755 mmHg 72%
    18:00 +32°C° 0.2 mm 1 mps 756 mmHg 75%
    19:00 +30°C° 0.2 mm 1 mps 757 mmHg 78%
    20:00 +29°C° 0.2 mm 2 mps 757 mmHg 81%
    21:00 +28°C° 1.1 mm 2 mps 757 mmHg 86%
    22:00 +28°C° 1.1 mm 2 mps 758 mmHg 90%
    23:00 +27°C° 1.1 mm 2 mps 758 mmHg 95%
    Show more